This demonstration page uses our WeatherBlox Daily Observations layout. Learn more.

Left ArrowRight Arrow

Hourly Observations for June 25, 2022

Temp ( °F °C ) Dew Point ( °F °C ) Humidity (%) Winds ( mph kmh ) Pressure ( in mb ) Visibility ( mi km ) Precip ( " mm )
12:15 am 00:15 Mostly Cloudy 74 23.2 71 21.4 90 90 SSE 21 33 29.71 1006 10 16 0.01 0.25
12:35 am 00:35 Partly Cloudy with Nearby Thunderstorms 74 23.2 65 18.1 73 73 S 12 19 29.71 1006 10 16 0.01 0.25
12:55 am 00:55 Clear with Nearby Thunderstorms 73 23 63 17.4 71 71 NNE 5 7 29.71 1006 10 16 0.01 0.25
1:15 am 01:15 Clear 73 22.8 67 19.5 82 82 N 13 20 29.71 1006 10 16 0.00 0.00
1:35 am 01:35 Clear 74 23.3 69 20.4 84 84 NNW 17 28 29.69 1006 10 16 0.00 0.00
1:55 am 01:55 Clear 73 22.7 66 18.8 79 79 N 13 20 29.69 1005 10 16 0.00 0.00
2:15 am 02:15 Clear 72 22.2 65 18.1 78 78 W 8 13 29.72 1007 10 16 0.00 0.00
2:35 am 02:35 Clear 71 21.9 64 17.6 77 77 W 6 9 29.73 1007 10 16 0.00 0.00
2:55 am 02:55 Clear 71 21.6 65 18.2 81 81 WSW 5 7 29.73 1007 10 16 0.00 0.00
3:15 am 03:15 Clear 70 21.2 65 18.4 84 84 WSW 5 7 29.72 1007 10 16 0.00 0.00
3:35 am 03:35 Clear 70 21 65 18.5 86 86 WSW 6 9 29.73 1007 10 16 0.00 0.00
3:55 am 03:55 Clear 70 21 66 18.7 87 87 W 6 9 29.74 1007 10 16 0.00 0.00
4:15 am 04:15 Clear 70 21.1 66 18.8 87 87 W 7 11 29.74 1007 10 16 0.00 0.00
4:35 am 04:35 Clear 70 21.1 66 19 88 88 WNW 6 9 29.78 1009 10 16 0.00 0.00
4:55 am 04:55 Partly Cloudy 71 21.6 67 19.2 86 86 NNW 7 11 29.80 1009 10 16 0.00 0.00
5:15 am 05:15 Clear with Drizzle 71 21.6 67 19.5 88 88 Calm 29.81 1009 10 16 0.00 0.00
5:35 am 05:35 Clear 71 21.7 67 19.6 88 88 NNW 8 13 29.83 1010 10 16 0.00 0.00
5:55 am 05:55 Clear 71 21.6 64 17.8 79 79 N 15 24 29.87 1011 10 16 0.00 0.00
6:15 am 06:15 Sunny 69 20.7 63 17 79 79 N 16 26 29.90 1012 10 16 0.00 0.00
6:35 am 06:35 Mostly Cloudy 68 20 62 16.8 82 82 N 16 26 29.92 1013 10 16 0.00 0.00
6:55 am 06:55 Cloudy 67 19.2 62 16.5 84 84 N 22 35 29.96 1015 10 16 0.00 0.00
7:15 am 07:15 Cloudy with Nearby Thunderstorms 65 18.2 59 14.9 81 81 N 26 43 29.99 1015 10 16 0.00 0.00
7:35 am 07:35 Cloudy 64 17.8 57 14 79 79 N 25 41 30.01 1016 10 16 0.00 0.00
7:55 am 07:55 Cloudy 64 17.7 56 13.2 75 75 N 28 44 30.02 1017 10 16 0.00 0.00
8:15 am 08:15 Cloudy 64 17.7 55 13 74 74 N 22 35 30.03 1017 10 16 0.00 0.00
8:35 am 08:35 Cloudy 64 18 55 13 73 73 N 22 35 30.04 1017 10 16 0.00 0.00
8:55 am 08:55 Partly Cloudy 66 18.8 55 13 69 69 N 28 44 30.03 1017 10 16 0.00 0.00
9:15 am 09:15 Partly Cloudy 67 19.4 56 13.1 67 67 N 21 33 30.03 1017 10 16 0.00 0.00
9:35 am 09:35 Sunny 66 19.1 55 12.7 67 67 N 24 39 30.04 1017 10 16 0.00 0.00
9:55 am 09:55 Sunny 68 19.8 54 12.1 61 61 N 25 41 30.04 1017 10 16 0.00 0.00
10:15 am 10:15 Sunny 70 20.9 52 11.3 54 54 N 24 39 30.03 1017 10 16 0.00 0.00
10:35 am 10:35 Sunny 69 20.8 51 10.4 52 52 N 24 39 30.04 1017 10 16 0.00 0.00
10:55 am 10:55 Sunny 71 21.4 49 9.6 47 47 N 25 41 30.04 1017 10 16 0.00 0.00
11:15 am 11:15 Sunny 73 23 51 10.4 45 45 NNE 23 37 30.04 1017 10 16 0.00 0.00
11:35 am 11:35 Sunny 74 23.6 50 9.9 42 42 N 22 35 30.04 1017 10 16 0.00 0.00
11:55 am 11:55 Sunny 75 23.9 49 9.4 40 40 N 21 33 30.04 1017 10 16 0.00 0.00
12:15 pm 12:15 Sunny 76 24.5 49 9.5 39 39 N 23 37 30.04 1017 10 16 0.00 0.00
12:35 pm 12:35 Sunny 77 25 49 9.2 37 37 N 21 33 30.05 1018 10 16 0.00 0.00
12:55 pm 12:55 Sunny 77 24.8 47 8.6 36 36 N 23 37 30.05 1018 10 16 0.00 0.00
1:15 pm 13:15 Sunny 78 25.6 49 9.2 35 35 N 20 31 30.04 1017 10 16 0.00 0.00
1:35 pm 13:35 Sunny 79 26.1 50 10 36 36 N 21 33 30.04 1017 10 16 0.00 0.00
1:55 pm 13:55 Sunny 80 26.6 51 10.7 37 37 N 21 33 30.04 1017 10 16 0.00 0.00
2:15 pm 14:15 Sunny 79 26.1 51 10.5 38 38 N 18 30 30.04 1017 10 16 0.00 0.00
2:35 pm 14:35 Sunny 79 25.9 50 10.2 37 37 N 17 28 30.04 1017 10 16 0.00 0.00
2:55 pm 14:55 Sunny 79 25.9 51 10.3 38 38 N 18 30 30.05 1018 10 16 0.00 0.00
3:15 pm 15:15 Sunny 79 26.3 51 10.6 37 37 N 22 35 30.05 1018 10 16 0.00 0.00
3:35 pm 15:35 Sunny 79 26 50 10 37 37 N 18 30 30.06 1018 10 16 0.00 0.00
3:55 pm 15:55 Sunny 77 25.2 49 9.6 37 37 N 21 33 30.07 1018 10 16 0.00 0.00
4:15 pm 16:15 Sunny 77 25 49 9.4 37 37 N 15 24 30.07 1018 10 16 0.00 0.00
4:35 pm 16:35 Sunny 77 25.1 50 9.9 38 38 N 14 22 30.07 1018 10 16 0.00 0.00
4:55 pm 16:55 Sunny 78 25.6 50 10.2 38 38 N 16 26 30.06 1018 10 16 0.00 0.00
5:15 pm 17:15 Sunny 78 25.4 50 10.1 38 38 N 15 24 30.06 1018 10 16 0.00 0.00
5:35 pm 17:35 Sunny 77 25.1 50 10.1 39 39 N 12 19 30.07 1018 10 16 0.00 0.00
5:55 pm 17:55 Sunny 78 25.4 50 9.9 38 38 N 14 22 30.07 1018 10 16 0.00 0.00
6:15 pm 18:15 Sunny 77 24.8 49 9.7 39 39 N 12 19 30.07 1018 10 16 0.00 0.00
6:35 pm 18:35 Sunny 78 25.5 49 9.4 36 36 N 15 24 30.06 1018 10 16 0.00 0.00
6:55 pm 18:55 Sunny 76 24.2 48 9.1 38 38 N 14 22 30.08 1018 10 16 0.00 0.00
7:15 pm 19:15 Sunny 76 24.6 49 9.2 38 38 N 12 19 30.07 1018 10 16 0.00 0.00
7:35 pm 19:35 Sunny 74 23.6 47 8.1 37 37 N 13 20 30.08 1019 10 16 0.00 0.00
7:55 pm 19:55 Sunny 73 22.5 45 7.3 38 38 N 10 17 30.11 1020 10 16 0.00 0.00
8:15 pm 20:15 Sunny 72 22.1 46 7.6 39 39 NNE 9 15 30.12 1020 10 16 0.00 0.00
8:35 pm 20:35 Sunny 72 22 47 8.1 41 41 NNE 7 11 30.13 1020 10 16 0.00 0.00
8:55 pm 20:55 Sunny 69 20.8 48 8.8 46 46 N 6 9 30.14 1021 10 16 0.00 0.00
9:15 pm 21:15 Clear 67 19.2 48 9 52 52 N 7 11 30.17 1022 10 16 0.00 0.00
9:35 pm 21:35 Clear 64 17.5 49 9.2 58 58 N 7 11 30.20 1023 10 16 0.00 0.00
9:55 pm 21:55 Clear 62 16.9 48 8.7 59 59 N 7 11 30.21 1023 10 16 0.00 0.00
10:15 pm 22:15 Clear 60 15.8 48 8.7 63 63 NNE 8 13 30.24 1024 7 11 0.00 0.00
10:35 pm 22:35 Clear 63 17.1 46 7.5 53 53 NNE 7 11 30.25 1024 10 16 0.00 0.00
10:55 pm 22:55 Clear 60 15.5 46 7.5 59 59 N 7 11 30.27 1025 10 16 0.00 0.00
11:15 pm 23:15 Clear 59 15 45 7.4 61 61 N 6 9 30.29 1026 10 16 0.00 0.00
11:35 pm 23:35 Clear 57 14.1 45 7 63 63 N 7 11 30.30 1026 10 16 0.00 0.00
11:55 pm 23:55 Clear 56 13.3 44 6.9 65 65 N 6 9 30.31 1026 10 16 0.00 0.00

Powered by AerisWeather